Location: Cuzcurrita-R�o Tir�n
(42.5415°N, 2.9642°W)
Time: 04:43:31
(UTC+00:00)

Cosmos 1862 Rocket - Pass Details

Date: 27 February 2020
Orbit: 604 x 633 km, 82.5° (Epoch: 29 March)

Event Time Altitude Azimuth Distance (km) Brightness Sun altitude
Rises 18:41:59 0° 348° (NNW) 2,874 7.1 -8.8°
Reaches altitude 10° 18:44:14 10° 344° (NNW) 1,969 6.3 -9.2°
Maximum altitude 18:48:30 59° 266° (W) 708 4.2 -10.0°
Drops below altitude 10° 18:52:47 10° 186° (S) 1,968 6.2 -10.8°
Sets 18:55:02 0° 183° (S) 2,873 7.0 -11.2°
